| time (UTC) | temp C | wind direction | speed KPH | gust KPH | rain 1hr cm | rain 24hr cm | rain mn cm | humidity % | barometer mb |
| 20260504110606 | 7 | 47 | 0.0 | 0.0 | 0.00 | 0.00 | 0.00 | 76 | 1014.6 |
| 20260504100528 | 5 | 69 | 0.0 | 0.0 | 0.00 | 0.00 | 0.00 | 80 | 1014.3 |
| 20260504081921 | 7 | 57 | 0.0 | 0.0 | 0.00 | 0.00 | 0.00 | 68 | 1014.1 |
| 20260504081418 | 7 | 1 | 0.0 | 0.0 | 0.00 | 0.00 | 0.00 | 68 | 1014.2 |
| 20260504080914 | 7 | 43 | 0.0 | 0.0 | 0.00 | 0.00 | 0.00 | 72 | 1014.0 |
| 20260504080411 | 7 | 45 | 0.0 | 0.0 | 0.00 | 0.00 | 0.00 | 75 | 1014.1 |
| 20260504070339 | 6 | 55 | 0.0 | 0.0 | 0.00 | 0.00 | 0.00 | 85 | 1013.8 |
| 20260504050721 | 5 | 69 | 0.0 | 0.0 | 0.00 | 0.00 | 0.00 | 86 | 1014.6 |
| 20260504050218 | 5 | 69 | 0.0 | 0.0 | 0.00 | 0.00 | 0.00 | 85 | 1014.6 |
| 20260504045715 | 5 | 69 | 0.0 | 0.0 | 0.00 | 0.00 | 0.00 | 86 | 1014.7 |
| 20260504045210 | 5 | 69 | 0.0 | 0.0 | 0.00 | 0.00 | 0.00 | 84 | 1014.5 |
| 20260504044708 | 4 | 69 | 0.0 | 0.0 | 0.00 | 0.00 | 0.00 | 85 | 1014.7 |
| 20260504044205 | 4 | 69 | 0.0 | 0.0 | 0.00 | 0.00 | 0.00 | 87 | 1014.7 |
| 20260504043702 | 4 | 69 | 0.0 | 0.0 | 0.00 | 0.00 | 0.00 | 86 | 1014.6 |
| 20260504043158 | 4 | 69 | 0.0 | 0.0 | 0.00 | 0.00 | 0.00 | 85 | 1014.8 |
| 20260504042656 | 4 | 69 | 0.0 | 0.0 | 0.00 | 0.00 | 0.00 | 84 | 1014.6 |
| 20260504042152 | 4 | 69 | 0.0 | 0.0 | 0.00 | 0.00 | 0.00 | 85 | 1014.6 |
| 20260504041648 | 3 | 69 | 0.0 | 0.0 | 0.00 | 0.00 | 0.00 | 86 | 1014.8 |
| 20260504041144 | 3 | 68 | 0.0 | 0.0 | 0.00 | 0.00 | 0.00 | 87 | 1014.6 |
| 20260504040642 | 3 | 68 | 0.0 | 0.0 | 0.00 | 0.00 | 0.00 | 86 | 1014.5 |
| 20260504040139 | 3 | 66 | 0.0 | 0.0 | 0.00 | 0.00 | 0.00 | 87 | 1014.5 |
| 20260504035635 | 3 | 65 | 0.0 | 0.0 | 0.00 | 0.00 | 0.00 | 87 | 1014.5 |
| 20260504035132 | 3 | 65 | 0.0 | 0.0 | 0.00 | 0.00 | 0.00 | 87 | 1014.5 |
| 20260504034630 | 3 | 66 | 0.0 | 0.0 | 0.00 | 0.00 | 0.00 | 88 | 1014.3 |
| 20260504034126 | 3 | 64 | 0.0 | 0.0 | 0.00 | 0.00 | 0.00 | 87 | 1014.3 |
| 20260504033624 | 2 | 64 | 0.0 | 0.0 | 0.00 | 0.00 | 0.00 | 88 | 1014.6 |
| 20260504033121 | 2 | 64 | 0.0 | 0.0 | 0.00 | 0.00 | 0.00 | 89 | 1014.5 |
| 20260504032618 | 2 | 64 | 0.0 | 0.0 | 0.00 | 0.00 | 0.00 | 89 | 1014.5 |
| 20260504032115 | 2 | 64 | 0.0 | 0.0 | 0.00 | 0.00 | 0.00 | 88 | 1014.3 |
| 20260504031612 | 2 | 64 | 0.0 | 0.0 | 0.00 | 0.00 | 0.00 | 88 | 1014.5 |
| 20260504031108 | 2 | 64 | 0.0 | 0.0 | 0.00 | 0.00 | 0.00 | 88 | 1014.5 |
| 20260504030605 | 2 | 62 | 0.0 | 0.0 | 0.00 | 0.00 | 0.00 | 87 | 1014.5 |
| 20260504025559 | 2 | 62 | 0.0 | 0.0 | 0.00 | 0.00 | 0.00 | 87 | 1014.2 |
| 20260504025056 | 2 | 62 | 0.0 | 0.0 | 0.00 | 0.00 | 0.00 | 87 | 1014.3 |
| 20260504024553 | 2 | 62 | 0.0 | 0.0 | 0.00 | 0.00 | 0.00 | 86 | 1014.2 |
| 20260504024050 | 2 | 62 | 0.0 | 0.0 | 0.00 | 0.00 | 0.00 | 85 | 1014.3 |
| 20260504023546 | 2 | 62 | 0.0 | 0.0 | 0.00 | 0.00 | 0.00 | 85 | 1014.5 |
| 20260504023042 | 2 | 62 | 0.0 | 0.0 | 0.00 | 0.00 | 0.00 | 85 | 1014.3 |
| 20260504022538 | 2 | 59 | 0.0 | 0.0 | 0.00 | 0.00 | 0.00 | 86 | 1014.2 |
| 20260504022035 | 3 | 57 | 0.0 | 0.0 | 0.00 | 0.00 | 0.00 | 86 | 1014.5 |
| 20260504021532 | 3 | 57 | 0.0 | 0.0 | 0.00 | 0.00 | 0.00 | 85 | 1014.3 |
| 20260504021029 | 3 | 58 | 0.0 | 0.0 | 0.00 | 0.00 | 0.00 | 85 | 1014.4 |
| 20260504020526 | 3 | 55 | 0.0 | 0.0 | 0.00 | 0.00 | 0.00 | 84 | 1014.5 |
| 20260504020022 | 3 | 55 | 0.0 | 0.0 | 0.00 | 0.00 | 0.00 | 84 | 1014.6 |
| 20260504015519 | 3 | 53 | 0.0 | 0.0 | 0.00 | 0.00 | 0.00 | 84 | 1014.5 |
| 20260504015015 | 3 | 49 | 0.0 | 0.0 | 0.00 | 0.00 | 0.00 | 83 | 1014.6 |
| 20260504014511 | 3 | 49 | 0.0 | 0.0 | 0.00 | 0.00 | 0.00 | 84 | 1014.4 |
| 20260504014008 | 3 | 48 | 0.0 | 0.0 | 0.00 | 0.00 | 0.00 | 83 | 1014.4 |
| 20260504013506 | 3 | 46 | 0.0 | 0.0 | 0.00 | 0.00 | 0.00 | 83 | 1014.3 |
| 20260504013003 | 3 | 23 | 0.0 | 0.0 | 0.00 | 0.00 | 0.00 | 82 | 1014.3 |
| 20260504012500 | 4 | 23 | 0.0 | 0.0 | 0.00 | 0.00 | 0.00 | 82 | 1014.2 |
| 20260504011958 | 4 | 23 | 0.0 | 0.0 | 0.00 | 0.00 | 0.00 | 82 | 1014.3 |
| 20260504011454 | 4 | 23 | 0.0 | 0.0 | 0.00 | 0.00 | 0.00 | 79 | 1013.9 |
| 20260504010950 | 4 | 23 | 0.0 | 0.0 | 0.00 | 0.00 | 0.00 | 79 | 1013.9 |
| 20260504010446 | 4 | 23 | 0.0 | 0.0 | 0.00 | 0.00 | 0.00 | 81 | 1014.0 |
| 20260504005942 | 5 | 23 | 0.0 | 0.0 | 0.00 | 0.00 | 0.00 | 81 | 1014.0 |
| 20260504005439 | 5 | 22 | 0.0 | 0.0 | 0.00 | 0.00 | 0.00 | 78 | 1013.9 |
| 20260504004937 | 5 | 22 | 0.0 | 0.0 | 0.00 | 0.00 | 0.00 | 78 | 1013.8 |
| 20260504004434 | 5 | 22 | 0.0 | 0.0 | 0.00 | 0.00 | 0.00 | 74 | 1013.6 |
| 20260504003931 | 6 | 22 | 0.0 | 0.0 | 0.00 | 0.00 | 0.00 | 74 | 1013.5 |
| 20260504003427 | 6 | 22 | 0.0 | 0.0 | 0.00 | 0.00 | 0.00 | 75 | 1013.6 |
| 20260504002924 | 7 | 22 | 0.0 | 0.0 | 0.00 | 0.00 | 0.00 | 69 | 1013.7 |
| 20260504002421 | 7 | 22 | 0.0 | 0.0 | 0.00 | 0.00 | 0.00 | 75 | 1013.5 |
| 20260504001919 | 7 | 22 | 0.0 | 0.0 | 0.00 | 0.00 | 0.00 | 70 | 1013.6 |
| 20260504001416 | 7 | 22 | 0.0 | 0.0 | 0.00 | 0.00 | 0.00 | 70 | 1013.5 |
| 20260504000912 | 7 | 22 | 0.0 | 0.0 | 0.00 | 0.00 | 0.00 | 67 | 1013.4 |
| 20260504000410 | 7 | 22 | 0.0 | 0.0 | 0.00 | 0.00 | 0.00 | 67 | 1013.3 |
| 20260503235907 | 7 | 22 | 0.0 | 0.0 | 0.00 | 0.00 | 0.00 | 68 | 1013.4 |
| 20260503235405 | 8 | 22 | 0.0 | 0.0 | 0.00 | 0.00 | 0.00 | 68 | 1013.1 |
| 20260503234902 | 8 | 22 | 0.0 | 0.0 | 0.00 | 0.00 | 0.00 | 67 | 1013.1 |
| 20260503234359 | 9 | 22 | 0.0 | 0.0 | 0.00 | 0.00 | 0.00 | 56 | 1013.0 |
| 20260503233857 | 10 | 25 | 0.0 | 0.0 | 0.00 | 0.00 | 0.00 | 53 | 1013.0 |
| 20260503233353 | 10 | 25 | 0.0 | 0.0 | 0.00 | 0.00 | 0.00 | 47 | 1012.8 |
| 20260503232850 | 10 | 56 | 0.0 | 1.6 | 0.00 | 0.00 | 0.00 | 47 | 1012.8 |
| 20260503232347 | 11 | 24 | 0.0 | 0.0 | 0.00 | 0.00 | 0.00 | 44 | 1012.7 |
| 20260503231845 | 11 | 359 | 0.0 | 0.0 | 0.00 | 0.00 | 0.00 | 43 | 1012.6 |
| 20260503231342 | 11 | 7 | 0.0 | 0.0 | 0.00 | 0.00 | 0.00 | 44 | 1012.9 |
| 20260503230838 | 11 | 337 | 0.0 | 1.6 | 0.00 | 0.00 | 0.00 | 43 | 1012.7 |
| 20260503230335 | 11 | 7 | 0.0 | 0.0 | 0.00 | 0.00 | 0.00 | 42 | 1012.6 |
| 20260503225833 | 11 | 9 | 1.6 | 1.6 | 0.00 | 0.00 | 0.00 | 40 | 1012.7 |
| 20260503225328 | 11 | 342 | 4.8 | 8.0 | 0.00 | 0.00 | 0.00 | 38 | 1012.8 |
| 20260503224825 | 11 | 14 | 0.0 | 0.0 | 0.00 | 0.00 | 0.00 | 39 | 1012.7 |
| 20260503224322 | 11 | 340 | 1.6 | 4.8 | 0.00 | 0.00 | 0.00 | 39 | 1012.6 |
| 20260503223820 | 12 | 11 | 0.0 | 1.6 | 0.00 | 0.00 | 0.00 | 38 | 1012.5 |
| 20260503223317 | 12 | 352 | 1.6 | 3.2 | 0.00 | 0.00 | 0.00 | 36 | 1012.4 |
| 20260503222813 | 12 | 46 | 0.0 | 0.0 | 0.00 | 0.00 | 0.00 | 37 | 1012.4 |
| 20260503222311 | 13 | 346 | 6.4 | 12.9 | 0.00 | 0.00 | 0.00 | 35 | 1012.5 |
| 20260503221809 | 13 | 326 | 1.6 | 1.6 | 0.00 | 0.00 | 0.00 | 36 | 1012.5 |
| 20260503221308 | 13 | 34 | 0.0 | 0.0 | 0.00 | 0.00 | 0.00 | 39 | 1012.3 |
| 20260503220803 | 13 | 331 | 1.6 | 4.8 | 0.00 | 0.00 | 0.00 | 36 | 1012.3 |
| 20260503220300 | 13 | 47 | 4.8 | 8.0 | 0.00 | 0.00 | 0.00 | 37 | 1012.5 |
| 20260503215757 | 13 | 337 | 3.2 | 4.8 | 0.00 | 0.00 | 0.00 | 37 | 1012.4 |
| 20260503215254 | 13 | 335 | 3.2 | 4.8 | 0.00 | 0.00 | 0.00 | 35 | 1012.4 |
| 20260503214752 | 13 | 7 | 6.4 | 11.3 | 0.00 | 0.00 | 0.00 | 36 | 1012.3 |
| 20260503214249 | 13 | 310 | 1.6 | 3.2 | 0.00 | 0.00 | 0.00 | 38 | 1012.6 |
| 20260503213747 | 12 | 306 | 9.7 | 11.3 | 0.00 | 0.00 | 0.00 | 34 | 1012.6 |
| 20260503213244 | 13 | 319 | 0.0 | 0.0 | 0.00 | 0.00 | 0.00 | 38 | 1012.4 |
| 20260503212740 | 12 | 348 | 1.6 | 3.2 | 0.00 | 0.00 | 0.00 | 39 | 1012.5 |
| 20260503212238 | 13 | 235 | 1.6 | 1.6 | 0.00 | 0.00 | 0.00 | 37 | 1012.0 |
| 20260503211736 | 13 | 336 | 3.2 | 4.8 | 0.00 | 0.00 | 0.00 | 37 | 1012.3 |
| 20260503211231 | 13 | 299 | 4.8 | 8.0 | 0.00 | 0.00 | 0.00 | 38 | 1012.3 |
| 20260503210727 | 13 | 325 | 3.2 | 8.0 | 0.00 | 0.00 | 0.00 | 35 | 1012.6 |
| 20260503210225 | 13 | 307 | 4.8 | 4.8 | 0.00 | 0.00 | 0.00 | 37 | 1012.2 |
| 20260503205720 | 13 | 345 | 3.2 | 4.8 | 0.00 | 0.00 | 0.00 | 38 | 1012.0 |
| 20260503205216 | 13 | 17 | 0.0 | 0.0 | 0.00 | 0.00 | 0.00 | 40 | 1012.3 |
| 20260503204713 | 13 | 313 | 4.8 | 4.8 | 0.00 | 0.00 | 0.00 | 39 | 1012.5 |
| 20260503204211 | 13 | 303 | 4.8 | 4.8 | 0.00 | 0.00 | 0.00 | 39 | 1012.4 |
| 20260503203708 | 13 | 353 | 4.8 | 4.8 | 0.00 | 0.00 | 0.00 | 39 | 1012.5 |
| 20260503203205 | 13 | 79 | 0.0 | 0.0 | 0.00 | 0.00 | 0.00 | 40 | 1012.8 |
| 20260503202702 | 13 | 321 | 3.2 | 3.2 | 0.00 | 0.00 | 0.00 | 42 | 1012.3 |
| 20260503202200 | 13 | 5 | 6.4 | 9.7 | 0.00 | 0.00 | 0.00 | 42 | 1012.6 |
| 20260503201658 | 12 | 26 | 1.6 | 3.2 | 0.00 | 0.00 | 0.00 | 45 | 1012.5 |
| 20260503201155 | 12 | 243 | 9.7 | 11.3 | 0.00 | 0.00 | 0.00 | 40 | 1012.8 |
| 20260503200651 | 12 | 327 | 1.6 | 3.2 | 0.00 | 0.00 | 0.00 | 43 | 1012.6 |
| 20260503200148 | 12 | 357 | 4.8 | 8.0 | 0.00 | 0.00 | 0.00 | 43 | 1013.0 |
| 20260503195644 | 13 | 312 | 8.0 | 11.3 | 0.00 | 0.00 | 0.00 | 43 | 1012.8 |
| 20260503195142 | 13 | 333 | 0.0 | 0.0 | 0.00 | 0.00 | 0.00 | 46 | 1013.0 |
| 20260503194639 | 12 | 43 | 3.2 | 4.8 | 0.00 | 0.00 | 0.00 | 48 | 1012.9 |
| 20260503194134 | 12 | 103 | 0.0 | 0.0 | 0.00 | 0.00 | 0.00 | 43 | 1013.0 |
| 20260503193631 | 12 | 290 | 8.0 | 11.3 | 0.00 | 0.00 | 0.00 | 46 | 1013.0 |
| 20260503193126 | 11 | 9 | 3.2 | 4.8 | 0.00 | 0.00 | 0.00 | 47 | 1013.1 |
| 20260503192622 | 12 | 203 | 1.6 | 3.2 | 0.00 | 0.00 | 0.00 | 45 | 1013.2 |
| 20260503192118 | 10 | 348 | 3.2 | 4.8 | 0.00 | 0.00 | 0.00 | 46 | 1013.4 |
| 20260503191615 | 10 | 209 | 3.2 | 4.8 | 0.00 | 0.00 | 0.00 | 45 | 1013.2 |
| 20260503191112 | 10 | 21 | 0.0 | 0.0 | 0.00 | 0.00 | 0.00 | 48 | 1013.5 |
| 20260503190609 | 10 | 23 | 0.0 | 1.6 | 0.00 | 0.00 | 0.00 | 49 | 1013.5 |
| 20260503190106 | 10 | 333 | 1.6 | 3.2 | 0.00 | 0.00 | 0.00 | 49 | 1013.7 |
| 20260503185603 | 11 | 300 | 8.0 | 12.9 | 0.00 | 0.00 | 0.00 | 44 | 1013.5 |
| 20260503185102 | 10 | 329 | 4.8 | 9.7 | 0.00 | 0.00 | 0.00 | 44 | 1013.6 |
| 20260503184558 | 10 | 341 | 3.2 | 3.2 | 0.00 | 0.00 | 0.00 | 46 | 1013.6 |
| 20260503184055 | 10 | 347 | 1.6 | 3.2 | 0.00 | 0.00 | 0.00 | 48 | 1013.8 |
| 20260503183551 | 10 | 355 | 4.8 | 9.7 | 0.00 | 0.00 | 0.00 | 47 | 1013.9 |
| 20260503183049 | 10 | 350 | 4.8 | 4.8 | 0.00 | 0.00 | 0.00 | 49 | 1013.9 |
| 20260503182547 | 10 | 344 | 4.8 | 8.0 | 0.00 | 0.00 | 0.00 | 46 | 1013.7 |
| 20260503182045 | 10 | 41 | 3.2 | 3.2 | 0.00 | 0.00 | 0.00 | 46 | 1013.8 |
| 20260503181542 | 10 | 323 | 4.8 | 4.8 | 0.00 | 0.00 | 0.00 | 50 | 1013.6 |
| 20260503181038 | 10 | 110 | 4.8 | 9.7 | 0.00 | 0.00 | 0.00 | 45 | 1013.6 |
| 20260503180535 | 10 | 350 | 0.0 | 0.0 | 0.00 | 0.00 | 0.00 | 45 | 1013.6 |
| 20260503180032 | 11 | 325 | 0.0 | 0.0 | 0.00 | 0.00 | 0.00 | 46 | 1013.7 |
| 20260503175530 | 10 | 7 | 6.4 | 9.7 | 0.00 | 0.00 | 0.00 | 45 | 1013.7 |
| 20260503175027 | 10 | 302 | 8.0 | 9.7 | 0.00 | 0.00 | 0.00 | 44 | 1014.1 |
| 20260503174524 | 10 | 20 | 1.6 | 1.6 | 0.00 | 0.00 | 0.00 | 44 | 1014.0 |
| 20260503174020 | 9 | 331 | 8.0 | 9.7 | 0.00 | 0.00 | 0.00 | 47 | 1013.7 |
| 20260503173515 | 8 | 313 | 3.2 | 4.8 | 0.00 | 0.00 | 0.00 | 49 | 1013.9 |
| 20260503173012 | 9 | 337 | 6.4 | 9.7 | 0.00 | 0.00 | 0.00 | 48 | 1013.9 |
| 20260503172510 | 8 | 358 | 0.0 | 0.0 | 0.00 | 0.00 | 0.00 | 50 | 1013.8 |
| 20260503172006 | 9 | 294 | 4.8 | 4.8 | 0.00 | 0.00 | 0.00 | 50 | 1013.7 |
| 20260503171503 | 9 | 354 | 3.2 | 4.8 | 0.00 | 0.00 | 0.00 | 48 | 1013.7 |
| 20260503171001 | 10 | 323 | 3.2 | 3.2 | 0.00 | 0.00 | 0.00 | 50 | 1013.5 |
| 20260503170457 | 10 | 42 | 8.0 | 9.7 | 0.00 | 0.00 | 0.00 | 47 | 1013.9 |
| 20260503150849 | 9 | 29 | 6.4 | 9.7 | 0.00 | 0.00 | 0.00 | 51 | 1014.0 |
| 20260503150345 | 10 | 2 | 3.2 | 3.2 | 0.00 | 0.00 | 0.00 | 53 | 1013.8 |
| 20260503140309 | 6 | 359 | 3.2 | 3.2 | 0.00 | 0.00 | 0.00 | 71 | 1014.6 |
| 20260503131239 | 6 | 12 | 0.0 | 0.0 | 0.00 | 0.00 | 0.00 | 74 | 1014.9 |
| 20260503130737 | 6 | 329 | 0.0 | 1.6 | 0.00 | 0.00 | 0.00 | 75 | 1014.8 |
| 20260503130234 | 6 | 351 | 0.0 | 0.0 | 0.00 | 0.00 | 0.00 | 75 | 1014.3 |
| 20260503120200 | 4 | 339 | 0.0 | 0.0 | 0.00 | 0.00 | 0.00 | 84 | 1014.4 |